Location: Newark
(46.7000°N, 60.6000°W)
Time: 20:19:05
(UTC+00:00)

N. Korean satellite - Pass Details

Date: 30 September 2020
Orbit: 452 x 505 km, 97.2° (Epoch: 28 October)

Event Time Altitude Azimuth Distance (km) Brightness Sun altitude
Rises 09:23:21 0° 16° (NNE) 2,583 10.5 -7.2°
Reaches altitude 10° 09:25:30 10° 22° (NNE) 1,686 9.6 -6.8°
Maximum altitude 09:29:03 52° 99° (E) 606 7.6 -6.2°
Drops below altitude 10° 09:32:30 10° 177° (S) 1,641 9.3 -5.6°
Sets 09:34:34 0° 183° (S) 2,504 10.1 -5.3°
